RADUGA 27 [-]

Last updated on Nov. 17, 2019, 4:20 a.m. UTC

1 21132U 91014A   19320.28227859  .00000098  00000-0  00000+0 0  9998
2 21132  15.3420 357.1952 0004079 356.6804 181.9131  1.00291804105184
UTC
Height (km)
Latitude
Longitude
Inclination
Orbital Period
UTC large
Height (km)
Speed (km/s)
/
Latitude / Longitude
Inclination (degrees)
Orbital Period (minutes)
Azimuth
Elevation
Range (km)
Doppler Factor
iOS Compass Heading
iOS Angle

Next 30 passes for location: Hong Kong

Rise time Rise Azimuth (degrees) Set time Set Azimuth (degrees) Duration Max altitude (degrees)

No matching passes for this satellites